Home > Weather > Bridgetown > Past weeks

Flag for Barbados Weather for the Past 2 Weeks in Bridgetown, Barbados

Now
77 °F

Partly sunny.


Feels Like: 78 °F
Forecast: 77 / 83 °F
Wind: 18 mph from East

Location: Grantley Adams

Current Time: Feb 10, 2016 at 7:51:23 AM

Latest Report: Feb 10, 2016 at 7:00 AM


Visibility: N/A

Pressure: 30.04 "Hg

Humidity: 83%

Dew point: 72 °F

Location of BridgetownLocation

Historic Weather in Bridgetown — Graph

°F

Bridgetown Temperature Yesterday

Maximum temperature yesterday: 86 °F (at 1:00 PM)
Minimum temperature yesterday: 77 °F (at 12:00 AM)
Average temperature yesterday: 80 °F

High & Low Weather Summary for the Past Weeks

 TemperatureHumidityPressure
High86 °F (Jan 26, 12:00 PM)94% (Feb 3, 11:00 PM)30.09 "Hg (Feb 3, 11:00 PM)
Low70 °F (Feb 3, 11:00 PM)55% (Jan 27, 1:00 PM)29.86 "Hg (Feb 3, 4:00 PM)
Average79 °F75%29.99 "Hg
* Reported Jan 26 6:00 AM — Feb 10 6:00 AM, Bridgetown, Weather by CustomWeather, © 2016

Note: Actual official high and low records may vary slightly from our data, if they occured in-between our weather recording intervals... More about our weather records

Advertising

Bridgetown Weather History for the Previous 24 Hours

 ConditionsComfort  
Time TempWeatherWind HumidityBarometerVisibility
6:00 AM
Wed, Feb 10
75 °FPassing clouds.14 mph94%30.01 "HgN/A
5:00 AM75 °FPassing clouds.9 mph89%30.01 "HgN/A
4:00 AM77 °FSprinkles. Passing clouds.14 mph83%30.01 "HgN/A
3:00 AM77 °FPassing clouds.17 mph83%30.01 "HgN/A
2:00 AM77 °FPassing clouds.21 mph83%30.01 "HgN/A
1:00 AM77 °FSprinkles. Passing clouds.20 mph83%30.04 "HgN/A
12:00 AM79 °FPassing clouds.21 mph79%30.04 "HgN/A
11:00 PM
Tue, Feb 9
79 °FPassing clouds.21 mph79%30.04 "HgN/A
10:00 PM79 °FPassing clouds.17 mph79%30.04 "HgN/A
9:00 PM79 °FPassing clouds.18 mph79%30.04 "HgN/A
8:00 PM77 °FPassing clouds.20 mph79%30.04 "HgN/A
7:00 PM79 °FPassing clouds.20 mph79%30.01 "HgN/A
6:00 PM79 °FScattered clouds.17 mph79%30.01 "HgN/A
5:00 PM82 °FScattered clouds.21 mph70%30.01 "HgN/A
4:00 PM84 °FPassing clouds.20 mph66%30.01 "HgN/A
3:00 PM84 °FScattered clouds.22 mph62%30.01 "HgN/A
2:00 PM84 °FPassing clouds.20 mph66%30.01 "HgN/A
1:00 PM86 °FPassing clouds.22 mph62%30.04 "HgN/A
12:00 PM84 °FScattered clouds.22 mph70%30.07 "HgN/A
11:00 AM84 °FPartly sunny.22 mph66%30.09 "HgN/A
10:00 AM82 °FPartly sunny.18 mph70%30.09 "HgN/A
9:00 AM82 °FPartly sunny.22 mph70%30.09 "HgN/A
8:00 AM79 °FSprinkles. Partly sunny.18 mph74%30.07 "HgN/A
7:00 AM79 °FPassing clouds.21 mph74%30.04 "HgN/A
Weather by CustomWeather, © 2016

See weather overviewHow to use our weather pages